Eagle, AK

7:49 AM AKST on January 22, 2018 (GMT -0900)
Eagle

Weather History for PAEG - June, 2014

Change the Weather History Date:

Monday, June 16, 2014

  Actual Average (PABN) Record (PABN)
Temperature  
Mean Temperature 55 °F -  
Max Temperature 75 °F 57 °F 80 °F (2013)
Min Temperature 37 °F 48 °F 37 °F (2011)
Degree Days  
Heating Degree Days 10    
Growing Degree Days 5 (Base 50)    
Moisture  
Dew Point 42 °F    
Average Humidity 56    
Maximum Humidity 86    
Minimum Humidity 32    
Precipitation  
Precipitation 0.00 in - - ()
Sea Level Pressure  
Sea Level Pressure 29.65 in    
Wind  
Wind Speed 3 mph (SSE)    
Max Wind Speed 13 mph    
Max Gust Speed 21 mph    
Visibility 10 miles    
Events      
Averages and records for this station are not official NWS values.
T = Trace of Precipitation, MM = Missing Value Source: NWS Daily Summary

Daily Weather History Graph

Daily Weather History Graph

Search for Another Location

Airport or City:

Trip Planner

Search our weather history database for the weather conditions in past years. The results will help you decide how hot, cold, wet, or windy it might be!

Date:

Astronomy

Jun. 16, 2014 Rise Set
Actual Time 2:35 AM AKDT 12:16 AM AKDT
Civil Twilight Sun does not rise Sun does not rise
Nautical Twilight Sun does not rise Sun does not rise
Astronomical Twilight Sun does not rise Sun does not rise
Moon 12:28 AM AKDT (6/16) 9:00 AM AKDT (6/16)
Length of Visible Light 24h 00m
Length of Day
21h 40m
Waning Gibbous, 82% of the Moon is Illuminated
Jun 16
Waning Gibbous
Jun 19
Last Quarter
Jun 27
New
Jul 5
First Quarter
Jul 12
Full

Hourly Weather History & Observations

Time (AKDT) Temp. Windchill Dew Point Humidity Pressure Visibility Wind Dir Wind Speed Gust Speed Precip Events Conditions
12:53 AM 45.0 °F - 37.0 °F 74% 29.75 in 10.0 mi Calm Calm - N/A   Partly Cloudy
1:53 AM 42.1 °F 40.2 °F 35.1 °F 76% 29.76 in 10.0 mi WSW 3.5 mph - N/A   Clear
2:53 AM 37.9 °F 35.5 °F 33.1 °F 83% 29.76 in 10.0 mi SSW 3.5 mph - N/A   Clear
3:53 AM 37.0 °F 33.3 °F 33.1 °F 86% 29.77 in 10.0 mi Variable 4.6 mph - N/A   Clear
4:53 AM 43.0 °F - 36.0 °F 76% 29.77 in 10.0 mi Calm Calm - N/A   Clear
5:53 AM 46.0 °F - 37.9 °F 73% 29.76 in 10.0 mi Calm Calm - N/A   Scattered Clouds
6:53 AM 50.0 °F - 39.9 °F 68% 29.75 in 10.0 mi Calm Calm - N/A   Overcast
7:53 AM 55.0 °F - 43.0 °F 64% 29.74 in 10.0 mi Calm Calm - N/A   Overcast
8:53 AM 61.0 °F - 45.0 °F 56% 29.72 in 10.0 mi Variable 6.9 mph - N/A   Overcast
9:53 AM 66.0 °F - 45.0 °F 47% 29.70 in 10.0 mi SE 12.7 mph 20.7 mph N/A   Clear
10:53 AM 70.0 °F - 45.0 °F 41% 29.68 in 10.0 mi ESE 11.5 mph 18.4 mph N/A   Partly Cloudy
11:53 AM 70.0 °F - 44.1 °F 39% 29.68 in 10.0 mi ESE 11.5 mph 20.7 mph 0.00 in   Mostly Cloudy
1:53 PM 71.1 °F - 45.0 °F 39% 29.65 in 10.0 mi East 5.8 mph 16.1 mph 0.00 in   Partly Cloudy
2:53 PM 70.0 °F - 42.1 °F 36% 29.63 in 10.0 mi SSE 5.8 mph - N/A   Clear
3:53 PM 70.0 °F - 46.9 °F 44% 29.63 in 10.0 mi Calm Calm - 0.00 in   Mostly Cloudy
4:53 PM 73.0 °F - 43.0 °F 34% 29.59 in 10.0 mi East 5.8 mph - N/A   Clear
5:53 PM 73.9 °F - 42.1 °F 32% 29.56 in 10.0 mi Variable 3.5 mph - N/A   Clear
6:53 PM 70.0 °F - 43.0 °F 38% 29.54 in 10.0 mi Calm Calm - N/A   Partly Cloudy
7:53 PM 64.9 °F - 46.0 °F 50% 29.52 in 10.0 mi Calm Calm - N/A   Clear
8:53 PM 69.1 °F - 48.0 °F 47% 29.50 in 10.0 mi West 3.5 mph - N/A   Clear
9:53 PM 66.0 °F - 50.0 °F 56% 29.49 in 10.0 mi West 3.5 mph - N/A   Clear
10:53 PM 61.0 °F - 48.9 °F 64% 29.47 in 10.0 mi Calm Calm - N/A   Partly Cloudy
11:53 PM 53.1 °F - 44.1 °F 71% 29.46 in 10.0 mi Calm Calm - N/A   Clear